Station SBIO1 - South Bass Island, OH Image indicating link to RSS feed of recent meteorological observations for station SBIO1


Conditions at SBIO1 as of
(9:00 am EDT)
1300 GMT on 07/16/2024:
     

Click on the graph icon in the table below to see a time series plot of the last five days of that observation.

5-day plot - Wind Direction Wind Direction (WDIR): W ( 280 deg true )
5-day plot - Wind Speed Wind Speed (WSPD): 28 kts
5-day plot - Wind Gust Wind Gust (GST): 30 kts
5-day plot - Atmospheric Pressure Atmospheric Pressure (PRES):29.77 in
5-day plot - Pressure Tendency Pressure Tendency (PTDY):+0.10 in ( Rising Rapidly )
5-day plot - Air Temperature Air Temperature (ATMP): 73.4 °F
5-day plot - Wind Speed at 10 Meters Wind Speed at 10 meters (WSPD10M): 25 kts
5-day plot - Wind Speed at 20 Meters Wind Speed at 20 meters (WSPD20M): 27 kts
5-day plot -  Wind Speed, Wind Gust and Atmospheric Pressure Combined plot of Wind Speed, Gust, and Air Pressure
Continuous Winds
TIME
(EDT)
5-day plot - Wind Direction WDIR 5-day plot - Wind Speed WSPD
9:00 amW ( 276 deg ) 28 kts
8:50 amW ( 275 deg ) 28 kts
8:40 amW ( 272 deg ) 30 kts
8:30 amW ( 269 deg ) 31 kts
8:20 amW ( 270 deg ) 33 kts
8:10 amW ( 273 deg ) 34 kts
 
Peak gust during the measurement hour
TIME
(EDT)
5-day plot - Gust Direction GDR 5-day plot - Gust Speed GST
8:07 amW ( 280 deg ) 40 kts
Previous observations
TIME
(EDT)
5-day plot - Wind Direction
WDIR
 
5-day plot - Wind Speed
WSPD
kts
5-day plot - Wind Gust
GST
kts
5-day plot - Wave Height
WVHT
ft
5-day plot - Dominant Wave Period
DPD
sec
5-day plot - Average Wave Period
APD
sec
5-day plot - Mean Wave Direction
MWD
 
5-day plot - Atmospheric Pressure
PRES
in
5-day plot - Pressure Tendency
PTDY
in
5-day plot - Air Temperature
ATMP
°F
5-day plot - Water Temperature
WTMP
°F
5-day plot - Dew Point
DEWP
°F
5-day plot - Salinity
SAL
psu
5-day plot - Visibility
VIS
nmi
5-day plot - Tide (above MLLW)
TIDE
ft
2024-07-16 08:00 am W 32 36----29.71+0.07 72.9-----
2024-07-16 07:00 amWSW 28 32----29.67+0.04 72.7-----
2024-07-16 06:00 amWSW 24 27----29.67-0.01 75.0-----
2024-07-16 05:00 am SW 22 25----29.64-0.09 80.1-----
2024-07-16 04:00 amSSW 19 22----29.64-0.12 79.9-----
2024-07-16 03:00 am S 22 27----29.68-0.07 78.4-----
2024-07-16 02:00 am S 15 16----29.73-0.02 78.4-----
2024-07-16 01:00 amSSW 15 17----29.75-0.02 78.8-----
2024-07-16 12:00 am S 12 13----29.75+0.00 80.2-----
2024-07-15 11:00 pm S 8 8----29.75-0.02 81.3-----
2024-07-15 10:00 pmSSW 9 9----29.78-0.01 81.9-----
2024-07-15 09:00 pm S 9 10----29.75-0.05 82.4-----
2024-07-15 08:00 pm SW 11 12----29.77-0.04 83.3-----
2024-07-15 07:00 pm- 0 2----29.79-0.05 83.3-----
2024-07-15 06:00 pmSSE 1 2----29.80-0.06 80.4-----
2024-07-15 05:00 pmWNW 3 3----29.81-0.06 80.2-----
2024-07-15 04:00 pm NW 6 6----29.84-0.03 77.7-----
2024-07-15 03:00 pmWNW 9 9----29.86+0.00 77.4-----
2024-07-15 02:00 pmWNW 14 15----29.87+0.02 76.1-----
2024-07-15 01:00 pmWNW 17 18----29.87+0.02 75.7-----
2024-07-15 12:00 pm W 18 20----29.86+0.00 75.6-----
2024-07-15 11:00 amWSW 18 21----29.85+0.00 75.2-----
2024-07-15 10:00 am W 18 21----29.84+0.00 76.6-----
2024-07-15 09:00 amSSW 12 13----29.86+0.01 76.1-----